Location: Podia
(1.5569°N, 32.3469°E)
Time: 14:12:04
(UTC+00:00)

Cosmos 389 Rocket - Pass Details

Date: 01 June 2020
Orbit: 443 x 476 km, 81.1° (Epoch: 04 July)

Event Time Altitude Azimuth Distance (km) Brightness Sun altitude
Rises 16:13:57 0° 163° (SSE) 2,435 5.7 -5.3°
Reaches altitude 10° 16:16:19 10° 148° (SSE) 1,565 4.7 -5.8°
Maximum altitude 16:19:01 22° 95° (E) 1,025 3.6 -6.4°
Drops below altitude 10° 16:21:44 10° 42° (NE) 1,569 5.0 -7.1°
Sets 16:24:06 0° 27° (NNE) 2,442 6.1 -7.6°
